User: anonymous   Login
Location: Fort Wayne
(41.1310°N, 85.1290°W)
Time: 04:53:47
(UTC-05:00)
Language:

Helios 1B - Orbit

View from above orbital plane
View from above orbital plane
View from above satellite
View from above satellite

Ground track
Ground track

The orbit data is extracted from the following two-line orbital elements,

1 25977U 99064A   16344.87172379  .00000249  00000-0  38172-4 0  9990
2 25977  98.1419  87.0701 0001919 134.5464 225.5905 14.82183996915963
Epoch (UTC): 09 December 2016 20:55:16
Eccentricity: 0.0001919
inclination: 98.1419°
perigee height: 621 km
apogee height: 624 km
right ascension of ascending node: 87.0701°
argument of perigee: 134.5464°
revolutions per day: 14.82183996
mean anomaly at epoch: 225.5905°
orbit number at epoch: 91596

The dashed part of the orbit path shows where the satellite is in the earth's shadow,  

DLR